Location: Palomar Mountain Lodge
(33.3110°N, 116.8495°W)
Time: 11:48:22
(UTC-07:00)

DMSP B5D2-2 - Pass Details

Date: 14 June 2018
Orbit: 791 x 806 km, 98.4° (Epoch: 15 October)

Event Time Altitude Azimuth Distance (km) Brightness Sun altitude
Rises 22:12:14 0° 9° (N) 3,309 7.9 -22.3°
Reaches altitude 10° 22:14:35 10° 7° (N) 2,373 7.1 -22.6°
Maximum altitude 22:19:48 70° 285° (WNW) 845 4.3 -23.3°
Enters shadow 22:22:18 31° 210° (SSW) 1,359 5.0 -23.6°
